Date String (YYYY-MM-DD hh:mm:ss) UTC,Instrument flags,absolute air pressure of the measurement (hPa),sample flow rate (lpm),inlet stack bypass flow (lpm),air temperature of the measurement (°C),ambient temperature measured by the external sensor (°C),aerosol sample conditioner tube jacket temperature (°C),OPC LED temperature (°C),internal box temperature (°C),relative humidity of the measurement (%),span deviation,mass concentration of particles derived from Lorenz-Mie calculation of OPC scattering (μg/m³),mass concentration of particles derived from Lorenz-Mie calculation of OPC scattering (μg/m³),mass concentration of particles derived from Lorenz-Mie calculation of OPC scattering (μg/m³)
DateTimeUTC,F1_M11,P_M11,Q1_M11,Q2_M11,T1_M11,T2_M11,T3_M11,T4_M11,T5_M11,U1_M11,ZSPAN_M11,X0_M11,X2_M11,X1_M11
2023-12-31 05:00:00,SystemResetWarning,0830.1,5.00,000.00,023.9,022.5,000.0,032.3,025.2,9.3,0000.0,0008.63,0003.90,0003.50
2023-12-31 05:01:00,SystemResetWarning,0830.0,5.00,000.00,023.9,022.5,000.0,032.3,025.2,9.3,0000.0,0008.74,0003.90,0003.50
2023-12-31 05:02:00,SystemResetWarning,0830.0,5.00,000.00,023.9,022.5,000.0,032.3,025.2,9.3,0000.0,0008.93,0003.93,0003.51
2023-12-31 05:03:00,SystemResetWarning,0830.0,5.00,000.00,023.8,022.5,000.0,032.3,025.2,9.3,0000.0,0009.66,0003.95,0003.51
2023-12-31 05:04:00,SystemResetWarning,0830.0,5.00,000.00,023.8,022.5,000.0,032.2,025.2,9.3,0000.0,0010.36,0003.94,0003.52
2023-12-31 05:05:00,SystemResetWarning,0830.0,5.00,000.00,023.8,022.5,000.0,032.2,025.2,9.3,0000.0,0010.40,0003.96,0003.52
2023-12-31 05:06:00,SystemResetWarning,0830.0,5.01,000.00,023.8,022.5,000.0,032.2,025.1,9.3,0000.0,0010.31,0003.98,0003.52
2023-12-31 05:07:00,SystemResetWarning,0830.0,5.00,000.00,023.8,022.5,000.0,032.2,025.1,9.3,0000.0,0009.38,0004.00,0003.53
2023-12-31 05:08:00,SystemResetWarning,0830.0,5.00,000.00,023.8,022.4,000.0,032.2,025.1,9.3,0000.0,0009.38,0003.99,0003.53
2023-12-31 05:09:00,SystemResetWarning,0830.0,5.00,000.00,023.8,022.4,000.0,032.2,025.1,9.3,0000.0,0009.21,0003.98,0003.53
2023-12-31 05:10:00,SystemResetWarning,0830.0,5.00,000.00,023.8,022.4,000.0,032.2,025.1,9.4,0000.0,0009.73,0004.00,0003.53
2023-12-31 05:11:00,SystemResetWarning,0830.0,5.00,000.00,023.8,022.4,000.0,032.2,025.1,9.3,0000.0,0009.49,0004.00,0003.53
2023-12-31 05:12:00,SystemResetWarning,0830.0,5.00,000.00,023.8,022.4,000.0,032.2,025.1,9.3,0000.0,0009.66,0004.04,0003.54
2023-12-31 05:13:00,SystemResetWarning,0830.0,5.00,000.00,023.7,022.4,000.0,032.2,025.1,9.4,0000.0,0009.62,0004.04,0003.55
2023-12-31 05:14:00,SystemResetWarning,0830.1,5.00,000.00,023.7,022.4,000.0,032.1,025.1,9.4,0000.0,0009.14,0004.04,0003.56
2023-12-31 05:15:00,SystemResetWarning,0830.0,5.00,000.00,023.7,022.4,000.0,032.1,025.1,9.3,0000.0,0008.31,0004.06,0003.57
2023-12-31 05:16:00,SystemResetWarning,0830.0,5.00,000.00,023.7,022.4,000.0,032.1,025.0,9.4,0000.0,0008.25,0004.06,0003.57
2023-12-31 05:17:00,SystemResetWarning,0830.0,5.00,000.00,023.7,022.4,000.0,032.1,025.0,9.4,0000.0,0008.78,0004.05,0003.58
2023-12-31 05:18:00,SystemResetWarning,0830.1,5.00,000.00,023.7,022.4,000.0,032.1,025.0,9.4,0000.0,0009.10,0004.07,0003.58
2023-12-31 05:19:00,SystemResetWarning,0830.0,5.00,000.00,023.7,022.3,000.0,032.1,025.0,9.4,0000.0,0009.18,0004.08,0003.58
2023-12-31 05:20:00,SystemResetWarning,0830.0,5.00,000.00,023.7,022.3,000.0,032.1,025.0,9.4,0000.0,0009.47,0004.11,0003.59
2023-12-31 05:21:00,SystemResetWarning,0830.0,5.00,000.00,023.6,022.3,000.0,032.1,025.0,9.4,0000.0,0009.18,0004.13,0003.60
2023-12-31 05:22:00,SystemResetWarning,0830.0,5.00,000.00,023.6,022.3,000.0,032.1,025.0,9.4,0000.0,0009.20,0004.14,0003.62
2023-12-31 05:23:00,SystemResetWarning,0830.1,4.99,000.00,023.6,022.3,000.0,032.1,025.0,9.4,0000.0,0009.27,0004.16,0003.63
2023-12-31 05:24:00,SystemResetWarning,0830.1,5.00,000.00,023.6,022.3,000.0,032.0,025.0,9.4,0000.0,0009.86,0004.19,0003.64
2023-12-31 05:25:00,SystemResetWarning,0830.1,4.99,000.00,023.6,022.3,000.0,032.0,025.0,9.4,0000.0,0010.37,0004.21,0003.64
2023-12-31 05:26:00,SystemResetWarning,0830.1,5.00,000.00,023.6,022.3,000.0,032.0,025.0,9.4,0000.0,0010.33,0004.22,0003.64
2023-12-31 05:27:00,SystemResetWarning,0830.1,5.01,000.00,023.6,022.3,000.0,032.0,025.0,9.4,0000.0,0010.45,0004.23,0003.66
2023-12-31 05:28:00,SystemResetWarning,0830.1,5.00,000.00,023.6,022.3,000.0,032.0,024.9,9.4,0000.0,0010.54,0004.27,0003.67
2023-12-31 05:29:00,SystemResetWarning,0830.1,5.00,000.00,023.6,022.2,000.0,032.0,024.9,9.4,0000.0,0010.30,0004.26,0003.68
2023-12-31 05:30:00,SystemResetWarning,0830.1,5.00,000.00,023.6,022.2,000.0,032.0,024.9,9.4,0000.0,0010.43,0004.26,0003.68
2023-12-31 05:31:00,SystemResetWarning,0830.1,5.00,000.00,023.6,022.2,000.0,032.0,024.9,9.4,0000.0,0010.43,0004.21,0003.68
2023-12-31 05:32:00,SystemResetWarning,0830.1,5.00,000.00,023.5,022.2,000.0,032.0,024.9,9.4,0000.0,0010.48,0004.18,0003.67
2023-12-31 05:33:00,SystemResetWarning,0830.2,5.00,000.00,023.5,022.2,000.0,032.0,024.9,9.4,0000.0,0010.64,0004.18,0003.66
2023-12-31 05:34:00,SystemResetWarning,0830.1,5.00,000.00,023.5,022.2,000.0,031.9,024.9,9.4,0000.0,0010.40,0004.16,0003.64
2023-12-31 05:35:00,SystemResetWarning,0830.1,5.00,000.00,023.5,022.2,000.0,031.9,024.9,9.4,0000.0,0010.00,0004.13,0003.63
2023-12-31 05:36:00,SystemResetWarning,0830.1,5.00,000.00,023.5,022.2,000.0,031.9,024.9,9.4,0000.0,0009.16,0004.11,0003.64
2023-12-31 05:37:00,SystemResetWarning,0830.1,5.00,000.00,023.5,022.2,000.0,031.9,024.9,9.4,0000.0,0009.19,0004.12,0003.64
2023-12-31 05:38:00,SystemResetWarning,0830.1,5.00,000.00,023.5,022.2,000.0,031.9,024.9,9.4,0000.0,0009.19,0004.10,0003.63
2023-12-31 05:39:00,SystemResetWarning,0830.1,5.00,000.00,023.5,022.2,000.0,031.9,024.9,9.4,0000.0,0008.68,0004.07,0003.62
2023-12-31 05:40:00,SystemResetWarning,0830.1,5.00,000.00,023.5,022.2,000.0,031.9,024.9,9.4,0000.0,0009.22,0004.04,0003.61
2023-12-31 05:41:00,SystemResetWarning,0830.1,5.00,000.00,023.5,022.2,000.0,031.9,024.9,9.4,0000.0,0009.47,0004.05,0003.61
2023-12-31 05:42:00,SystemResetWarning,0830.2,5.00,000.00,023.5,022.2,000.0,031.9,024.9,9.4,0000.0,0009.80,0004.08,0003.61
2023-12-31 05:43:00,SystemResetWarning,0830.1,5.00,000.00,023.5,022.2,000.0,031.9,024.9,9.4,0000.0,0010.49,0004.11,0003.62
2023-12-31 05:44:00,SystemResetWarning,0830.1,5.00,000.00,023.5,022.2,000.0,031.9,024.8,9.4,0000.0,0010.79,0004.13,0003.62
2023-12-31 05:45:00,SystemResetWarning,0830.1,5.01,000.00,023.5,022.2,000.0,031.9,024.9,9.4,0000.0,0010.96,0004.15,0003.62
2023-12-31 05:46:00,SystemResetWarning,0830.1,5.00,000.00,023.5,022.2,000.0,031.8,024.8,9.4,0000.0,0011.10,0004.20,0003.63
2023-12-31 05:47:00,SystemResetWarning,0830.1,5.00,000.00,023.5,022.2,000.0,031.8,024.9,9.4,0000.0,0011.24,0004.17,0003.63
2023-12-31 05:48:00,SystemResetWarning,0830.1,5.00,000.00,023.4,022.1,000.0,031.8,024.8,9.5,0000.0,0011.50,0004.15,0003.62
2023-12-31 05:49:00,SystemResetWarning,0830.2,5.00,000.00,023.4,022.1,000.0,031.8,024.8,9.5,0000.0,0011.52,0004.17,0003.63
2023-12-31 05:50:00,SystemResetWarning,0830.2,5.00,000.00,023.4,022.1,000.0,031.8,024.8,9.5,0000.0,0011.91,0004.24,0003.64
2023-12-31 05:51:00,SystemResetWarning,0830.2,5.00,000.00,023.4,022.1,000.0,031.8,024.8,9.5,0000.0,0011.60,0004.27,0003.66
2023-12-31 05:52:00,SystemResetWarning,0830.2,4.99,000.00,023.4,022.1,000.0,031.8,024.8,9.5,0000.0,0011.09,0004.28,0003.67
2023-12-31 05:53:00,SystemResetWarning,0830.2,5.00,000.00,023.4,022.1,000.0,031.8,024.8,9.5,0000.0,0010.49,0004.26,0003.67
2023-12-31 05:54:00,SystemResetWarning,0830.2,5.00,000.00,023.4,022.1,000.0,031.8,024.7,9.5,0000.0,0009.69,0004.27,0003.67
2023-12-31 05:55:00,SystemResetWarning,0830.2,5.00,000.00,023.4,022.1,000.0,031.8,024.8,9.5,0000.0,0008.91,0004.27,0003.68
2023-12-31 05:56:00,SystemResetWarning,0830.2,5.00,000.00,023.4,022.1,000.0,031.8,024.8,9.6,0000.0,0008.64,0004.25,0003.68
2023-12-31 05:57:00,SystemResetWarning,0830.2,4.99,000.00,023.4,022.1,000.0,031.8,024.7,9.6,0000.0,0009.19,0004.25,0003.68
2023-12-31 05:58:00,SystemResetWarning,0830.2,5.00,000.00,023.4,022.1,000.0,031.8,024.8,9.6,0000.0,0009.48,0004.26,0003.67
2023-12-31 05:59:00,SystemResetWarning,0830.2,5.00,000.00,023.3,022.1,000.0,031.7,024.7,9.6,0000.0,0009.23,0004.28,0003.68
